Temperature
16 16 15 15 15 14 14 14 14 13 13 13 13 13 13 13 13 13 13 13 13 13 13 13 13 13 13 13 13 13 13 13 13 13 13 13 14 14 14 14 14 14 14
16 16 15 15 15 14 14 14 14 14 13 13 13 13 13 13 13 13 13 13 13 13 13 13 13 13 13 13 13 13 13 13 13 13 13 13 13 13 14 14 14 14 14
17 16 16 15 15 15 14 14 14 14 13 13 13 13 13 13 13 13 13 13 13 13 13 13 13 13 13 13 13 13 13 13 13 13 13 13 13 13 13 13 13 14 14
17 17 16 16 15 15 14 14 14 14 14 13 13 13 13 13 13 13 13 13 13 13 13 13 13 13 13 13 13 13 13 13 13 13 13 13 13 13 13 13 13 14 14
17 17 16 16 15 15 15 14 14 14 14 13 13 13 13 13 13 13 13 13 13 13 13 13 13 13 13 13 13 13 13 13 13 13 13 13 13 13 13 13 13 13 13
18 17 17 16 16 15 15 14 14 14 14 14 13 13 13 13 13 13 13 13 13 13 13 13 13 13 13 13 13 13 13 13 13 13 13 13 13 13 13 13 13 13 13
18 17 17 16 16 16 15 15 14 14 14 14 14 14 13 13 13 13 13 13 13 13 13 13 13 12 12 12 12 13 13 13 12 12 12 13 12 12 12 12 12 12 12
18 17 17 17 16 16 15 15 14 14 14 14 14 14 14 14 13 13 13 13 13 13 13 13 13 12 12 12 12 12 12 12 12 12 12 12 12 12 12 12 12 12 12
18 18 17 17 16 16 16 15 15 14 14 14 14 14 14 14 14 13 13 13 13 13 13 12 12 12 12 12 12 12 12 12 12 12 12 12 12 12 12 12 12 12 12
18 18 17 17 16 16 16 15 15 15 14 14 14 14 14 14 14 13 13 13 13 13 13 12 12 12 12 12 12 12 12 12 12 12 12 12 12 12 12 12 12 12 12
18 17 17 17 16 16 16 15 15 15 14 14 14 14 14 14 14 13 13 13 13 13 13 12 12 12 12 12 12 12 12 12 11 11 11 11 11 11 11 11 11 11 11
17 17 17 17 16 16 16 16 15 15 15 14 14 14 14 14 14 14 13 13 13 13 13 12 12 12 12 12 11 11 11 11 11 11 11 11 11 11 11 11 11 11 11
17 17 17 16 16 16 16 15 15 15 14 14 14 14 14 14 14 13 13 13 13 13 12 12 12 12 12 11 11 11 11 11 11 11 11 11 11 11 10 10 10 10 10
16 16 16 16 16 16 15 15 15 15 15 14 14 14 14 14 14 13 13 13 13 12 12 12 12 11 11 11 11 11 11 11 11 11 11 10 10 10 10 10 10 10 10
15 16 16 16 15 15 15 15 15 15 15 14 14 14 14 14 14 13 13 13 12 12 12 12 11 11 11 11 11 11 10 10 10 10 10 10 10 10 10 10 9 9 9
15 15 15 15 15 15 15 15 15 14 14 14 14 14 14 14 13 13 13 12 12 12 12 11 11 11 11 11 11 10 10 10 10 10 10 10 9 9 9 9 9 9 9
14 14 14 14 14 14 14 14 14 14 14 13 13 13 13 13 13 13 12 12 12 11 11 11 11 11 11 11 10 10 10 10 10 9 9 9 9 9 9 8 8 8 8
13 13 13 13 14 14 14 14 14 13 13 13 13 13 13 12 12 12 12 12 11 11 11 11 11 11 10 10 10 10 10 9 9 9 9 9 9 8 8 8 8 7 7
12 13 13 13 13 13 13 13 13 13 13 12 13 12 12 12 12 11 11 11 11 11 11 11 11 10 10 10 10 9 9 9 9 9 8 8 8 8 7 7 7 7 7
12 12 12 12 12 12 12 12 12 12 12 12 12 12 12 11 11 11 11 11 11 11 10 10 10 10 10 10 9 9 9 9 8 8 8 8 7 7 7 7 6 6 6
11 11 11 11 11 11 11 11 11 11 11 11 11 11 11 11 11 11 11 10 10 10 10 10 10 9 9 9 9 9 8 8 8 8 7 7 7 7 6 6 6 6 5
10 10 10 10 11 11 11 11 11 11 11 11 11 11 10 10 10 10 10 10 10 10 9 9 9 9 9 9 8 8 8 8 7 7 7 7 6 6 6 6 5 5 5
9 9 9 9 10 10 10 10 10 10 10 10 10 10 10 10 10 10 9 9 9 9 9 9 9 8 8 8 8 8 7 7 7 7 6 6 6 6 5 5 5 4 4
8 8 8 9 9 9 9 9 9 10 10 10 10 10 10 10 9 9 9 9 8 8 8 8 8 8 8 8 7 7 7 7 6 6 6 6 5 5 5 4 4 4 3
8 8 8 8 8 8 8 9 9 9 9 9 9 9 9 9 9 9 9 8 8 8 8 7 7 7 7 7 7 6 6 6 6 5 5 5 5 4 4 4 3 3 3
7 7 7 7 7 8 8 8 8 8 9 9 9 9 9 9 9 9 8 8 8 7 7 7 7 7 7 6 6 6 6 6 5 5 5 4 4 4 4 3 3 3 2
Wind_Speed
7 6 5 5 4 3 3 3 3 2 2 2 2 2 2 2 1 1 1 0 0 0 0 1 1 1 1 1 1 2 2 2 2 1 0 0 0 1 2 2 2 1 1
7 6 6 5 4 3 3 4 3 2 2 2 1 1 2 1 1 0 1 1 0 1 1 1 1 1 1 1 1 2 2 2 3 2 0 0 0 0 1 1 1 1 1
6 6 5 5 5 5 5 4 3 3 2 1 1 1 2 2 1 1 1 1 0 1 1 1 1 2 1 1 1 2 1 2 2 3 1 0 0 0 1 1 1 1 1
6 7 7 7 6 6 5 4 3 3 2 2 2 2 2 2 2 1 0 1 1 1 1 1 1 2 2 2 2 2 2 2 3 3 1 0 0 0 1 1 1 1 1
7 7 8 7 6 5 4 4 3 3 3 3 2 2 2 2 2 2 1 1 0 1 1 1 1 1 2 2 2 3 3 3 2 2 1 0 0 1 1 0 0 1 1
8 9 7 6 5 5 5 5 4 3 3 2 2 2 2 2 3 3 3 1 1 0 1 1 1 1 1 1 2 3 5 4 4 3 2 2 1 1 1 1 1 1 1
8 7 7 6 6 6 6 5 5 4 3 3 3 3 3 4 3 3 3 2 2 1 1 0 1 1 1 1 1 1 1 3 4 4 4 3 3 3 3 2 2 1 1
7 7 7 7 7 6 5 6 6 4 4 4 4 4 4 4 4 4 4 2 2 1 1 1 1 1 0 2 2 2 1 0 1 2 3 3 3 3 3 3 2 1 0
7 8 8 8 7 7 7 7 6 5 5 4 3 4 4 5 4 5 4 2 1 1 1 1 1 1 2 2 3 2 0 2 1 2 3 2 1 2 3 3 2 2 0
8 8 7 8 8 9 9 7 5 5 6 5 4 5 5 5 5 5 6 3 2 1 1 1 1 2 1 3 3 3 2 2 0 1 1 2 2 2 2 2 3 2 1
6 5 5 7 8 8 7 5 5 5 5 5 5 4 5 5 6 6 7 4 4 3 2 1 1 1 1 2 3 3 3 2 1 2 2 2 2 2 2 1 1 2 2
3 4 5 6 6 6 6 6 5 6 6 6 5 4 4 4 5 6 8 8 7 4 3 2 2 2 3 3 2 2 3 3 3 3 2 1 1 1 1 2 3 3 3
3 4 5 5 5 4 6 6 5 5 6 6 5 5 5 4 4 7 8 9 9 5 4 5 4 3 3 2 2 3 3 3 3 2 1 1 0 0 1 2 3 4 5
4 4 4 4 4 4 4 5 6 6 6 6 6 7 5 4 4 4 4 5 6 5 3 3 4 4 3 3 3 2 2 2 3 2 1 1 1 2 2 1 2 2 2
4 4 4 4 5 5 5 5 6 7 8 8 7 7 7 7 8 10 8 7 7 6 5 3 2 2 2 2 2 2 2 2 2 1 2 2 2 2 2 1 2 2 2
5 5 4 4 4 4 4 3 4 5 8 10 10 8 7 9 9 10 12 12 12 12 7 4 4 4 4 4 3 2 1 1 1 2 2 2 2 2 2 2 2 3 2
6 6 5 4 5 5 5 5 4 3 3 6 9 10 9 9 9 10 11 11 11 12 6 5 5 5 5 4 4 3 3 2 2 2 2 2 2 2 2 2 2 2 2
6 7 6 5 6 6 7 7 6 5 4 3 5 8 9 9 9 10 10 9 6 6 5 6 6 6 5 5 5 4 3 3 2 3 2 2 2 2 3 2 2 2 2
6 5 6 5 6 6 6 6 6 7 6 4 2 4 7 7 7 9 10 6 7 7 6 6 6 6 6 6 5 5 5 4 4 3 3 3 3 3 3 2 2 3 2
6 9 7 5 5 6 6 6 6 7 6 6 6 5 4 4 4 5 6 6 6 6 7 7 6 6 6 6 6 6 5 5 5 4 4 4 3 3 3 3 3 2 2
6 7 8 6 5 6 6 7 7 7 7 7 7 7 9 7 7 8 7 7 7 8 7 7 6 6 6 6 6 7 7 6 5 5 4 4 4 3 3 3 3 2 2
6 6 6 6 6 6 6 7 7 8 8 8 5 6 10 6 6 7 7 7 7 6 7 7 7 6 7 7 7 7 7 7 6 6 5 5 4 4 3 3 3 2 2
6 6 6 6 6 7 7 6 6 7 8 8 7 7 7 6 6 7 7 7 6 6 6 6 7 6 6 7 7 8 8 8 7 7 7 6 5 4 4 3 3 3 2
6 7 7 6 6 6 6 7 7 7 7 8 8 8 8 8 7 8 7 6 6 6 6 7 7 9 10 8 8 8 8 8 9 8 9 7 6 5 4 4 3 3 2
6 7 7 7 7 7 7 7 7 7 7 8 8 8 8 7 7 7 7 7 7 7 7 8 7 9 11 11 10 9 11 12 10 9 8 7 6 6 5 4 3 3 2
7 7 6 6 6 6 7 7 7 7 8 8 8 8 8 8 8 7 7 7 7 7 7 7 9 10 12 11 12 13 14 13 12 11 8 6 6 5 5 4 4 3 3
Wind_Direction
205 206 209 216 215 210 218 239 248 265 283 294 304 319 327 332 353 16 344 40 85 346 161 175 204 175 154 163 156 157 168 162 178 266 307 330 23 38 26 40 59 117 151
206 203 209 211 203 209 229 242 240 247 261 271 290 314 316 328 340 314 314 349 207 265 265 189 219 173 165 168 156 167 172 173 167 177 305 359 15 170 78 55 39 76 104
197 201 208 210 207 217 230 234 229 232 251 266 246 270 294 297 289 272 270 286 273 263 271 223 227 164 176 189 174 170 172 157 151 157 188 53 358 43 77 63 53 32 46
193 197 207 214 214 218 225 224 224 222 227 240 236 248 272 280 269 259 256 290 297 312 316 271 223 188 200 194 182 179 156 135 135 143 160 178 148 352 96 87 39 20 12
192 203 215 217 214 213 219 222 220 217 223 227 229 261 283 275 260 229 214 210 245 338 346 329 286 208 202 193 182 177 157 146 141 145 158 149 181 142 157 146 113 2 355
198 212 215 209 208 212 217 215 213 219 223 213 222 240 263 271 268 210 183 172 166 188 322 325 321 334 286 217 181 168 166 164 169 168 178 182 217 204 192 174 153 85 327
205 213 208 204 209 216 214 207 212 217 214 216 227 229 247 266 259 217 191 167 170 194 224 300 338 351 23 91 81 98 147 185 183 173 177 200 204 202 177 176 181 184 218
210 215 210 204 212 213 207 213 216 211 210 216 224 225 238 258 242 210 179 155 151 177 210 216 221 295 283 134 123 95 62 338 209 178 181 204 206 196 186 185 181 162 67
217 220 215 207 209 208 212 219 215 205 210 212 215 217 225 251 233 204 175 150 158 214 250 231 211 235 259 151 132 134 39 323 330 159 171 176 178 164 153 131 132 130 5
228 226 217 205 205 211 217 217 210 204 211 209 216 217 217 233 231 209 180 161 175 211 253 279 238 212 231 169 156 157 188 264 244 96 70 41 54 80 120 149 166 161 166
235 224 213 209 211 214 212 209 203 201 202 206 215 223 221 227 229 216 190 176 185 188 200 233 252 210 175 163 160 172 202 194 149 126 100 75 66 60 54 75 132 165 173
226 219 218 216 217 213 203 204 197 194 199 209 215 229 231 229 223 221 206 194 182 177 195 206 209 163 145 138 150 175 162 136 114 106 98 85 76 55 42 64 90 92 99
232 230 227 216 212 201 197 201 198 195 202 212 211 223 234 229 224 216 206 194 183 179 187 179 169 155 136 118 100 120 123 119 123 122 133 168 194 147 91 81 68 80 71
240 243 232 215 215 209 204 201 202 205 209 213 214 220 225 224 220 210 199 191 182 178 175 159 146 131 117 106 89 83 101 127 138 147 148 129 91 87 78 85 92 83 79
245 244 235 223 216 215 214 214 213 217 212 212 219 213 209 222 224 203 189 191 187 181 155 131 128 130 134 120 97 86 90 105 118 130 133 121 104 97 80 73 92 92 103
253 248 237 227 221 215 214 242 246 233 230 220 215 210 221 219 210 200 197 193 185 169 151 162 178 178 180 181 171 159 142 144 153 148 140 140 139 133 116 90 93 108 111
249 247 240 231 223 217 213 214 234 270 252 229 220 215 216 211 205 198 191 186 180 167 167 182 188 191 190 185 181 176 181 184 167 152 149 152 147 138 127 118 113 107 106
262 251 242 233 227 222 218 219 216 215 228 252 237 218 211 208 202 192 177 159 171 178 187 191 195 193 190 189 187 184 177 162 153 154 152 151 147 142 137 139 141 141 139
270 262 249 239 231 227 222 218 218 217 219 224 233 224 206 197 190 184 169 175 185 194 198 198 195 191 190 188 185 180 175 173 166 161 162 159 156 148 149 151 150 143 136
273 272 264 246 233 228 222 219 219 217 216 215 216 213 187 175 190 194 193 193 194 196 195 196 195 191 186 183 178 173 171 171 168 165 167 165 162 159 161 161 161 161 171
276 274 270 259 237 227 222 222 221 217 216 218 221 211 194 198 202 201 200 199 200 199 196 192 190 187 184 178 176 175 174 178 178 174 171 169 163 162 163 163 165 161 159
272 268 263 255 245 233 226 223 221 220 218 216 219 212 200 201 204 204 205 206 204 199 191 185 186 187 184 180 178 177 178 179 179 175 172 168 164 161 158 161 164 167 168
272 268 265 261 251 239 232 227 225 223 220 214 208 204 203 208 209 208 206 203 195 189 182 179 179 181 182 181 181 178 180 184 182 176 170 168 166 166 165 169 173 174 185
269 264 261 260 252 240 233 231 228 226 222 214 208 207 207 207 208 207 203 194 187 184 182 182 183 182 178 177 175 177 178 175 170 171 167 167 169 169 169 172 178 184 191
264 262 259 255 250 245 239 235 231 228 223 216 210 207 206 205 204 201 195 186 181 182 182 181 180 179 177 175 172 172 170 166 166 165 164 165 167 169 171 176 182 184 192
261 260 259 256 251 246 239 235 232 228 223 218 213 208 204 201 199 195 190 183 180 181 179 180 179 177 176 177 175 171 167 165 165 163 162 163 165 171 172 178 184 189 189
Height
1502 1503 1503 1503 1503 1503 1503 1503 1503 1502 1502 1501 1500 1498 1497 1496 1495 1494 1493 1492 1492 1492 1491 1491 1491 1492 1492 1493 1493 1494 1495 1496 1497 1498 1499 1500 1501 1502 1503 1504 1505 1507 1508
1500 1501 1501 1502 1502 1502 1502 1502 1501 1501 1501 1500 1499 1498 1497 1496 1495 1494 1493 1492 1492 1491 1491 1491 1491 1491 1492 1492 1493 1493 1494 1495 1496 1496 1497 1498 1499 1500 1501 1502 1503 1505 1506
1497 1498 1499 1499 1500 1500 1500 1500 1500 1500 1500 1499 1498 1497 1497 1496 1495 1494 1493 1492 1492 1491 1491 1491 1491 1491 1491 1491 1492 1493 1493 1494 1495 1495 1496 1497 1498 1499 1500 1501 1502 1503 1504
1495 1495 1496 1497 1497 1498 1498 1498 1499 1498 1498 1498 1497 1496 1496 1495 1494 1494 1493 1492 1491 1491 1490 1490 1490 1490 1490 1491 1491 1492 1492 1493 1494 1494 1495 1496 1497 1497 1498 1499 1500 1501 1502
1491 1492 1493 1494 1495 1495 1496 1496 1497 1497 1497 1496 1496 1495 1495 1494 1493 1493 1492 1492 1491 1490 1490 1490 1490 1490 1490 1490 1491 1491 1492 1492 1493 1493 1494 1495 1495 1496 1497 1498 1499 1499 1500
1488 1489 1490 1491 1492 1492 1493 1494 1494 1494 1495 1495 1494 1494 1493 1492 1492 1492 1491 1491 1490 1490 1489 1489 1489 1489 1489 1489 1490 1490 1491 1491 1492 1492 1493 1494 1494 1495 1496 1497 1497 1498 1498
1485 1486 1487 1488 1489 1489 1490 1491 1491 1492 1492 1492 1492 1492 1491 1491 1490 1490 1490 1490 1489 1489 1489 1488 1488 1488 1488 1488 1489 1489 1490 1490 1491 1492 1492 1493 1493 1494 1495 1495 1496 1496 1497
1481 1482 1483 1484 1485 1486 1487 1487 1488 1489 1489 1489 1489 1489 1489 1489 1489 1489 1488 1488 1488 1488 1487 1487 1487 1487 1487 1487 1488 1488 1489 1489 1489 1490 1491 1492 1492 1493 1493 1494 1494 1495 1495
1478 1479 1480 1481 1482 1483 1483 1484 1485 1485 1486 1486 1486 1487 1487 1487 1487 1487 1487 1486 1486 1486 1486 1486 1486 1486 1486 1486 1487 1487 1487 1488 1488 1489 1489 1490 1491 1491 1492 1492 1492 1493 1493
1474 1475 1476 1477 1478 1478 1479 1480 1481 1482 1482 1483 1483 1483 1484 1484 1484 1484 1484 1484 1484 1484 1484 1484 1484 1484 1485 1485 1485 1485 1485 1486 1486 1487 1488 1488 1489 1489 1490 1490 1491 1491 1491
1471 1472 1472 1473 1474 1474 1475 1476 1477 1478 1478 1479 1479 1480 1480 1480 1481 1481 1481 1481 1481 1481 1482 1482 1482 1483 1483 1483 1483 1483 1483 1484 1484 1485 1485 1486 1486 1487 1487 1488 1488 1489 1489
1468 1468 1468 1469 1469 1470 1471 1471 1472 1473 1473 1474 1475 1475 1476 1476 1477 1477 1478 1478 1479 1479 1479 1479 1480 1480 1481 1481 1481 1481 1481 1481 1482 1482 1483 1483 1484 1484 1485 1485 1486 1486 1486
1464 1464 1464 1464 1464 1465 1465 1466 1467 1467 1468 1469 1469 1470 1471 1472 1472 1473 1474 1475 1475 1476 1476 1477 1477 1478 1478 1478 1478 1478 1478 1479 1479 1480 1480 1481 1481 1482 1482 1483 1483 1483 1484
1459 1459 1459 1459 1459 1460 1460 1461 1461 1461 1462 1463 1464 1464 1465 1467 1467 1468 1469 1470 1471 1472 1473 1474 1474 1475 1475 1475 1476 1476 1476 1476 1476 1477 1478 1478 1479 1479 1480 1480 1480 1481 1481
1454 1453 1453 1453 1454 1454 1454 1455 1455 1456 1457 1457 1458 1459 1460 1460 1462 1463 1464 1465 1467 1468 1469 1470 1471 1471 1472 1472 1473 1473 1473 1474 1474 1475 1475 1476 1476 1476 1477 1477 1477 1478 1478
1448 1447 1447 1447 1448 1448 1448 1449 1449 1450 1451 1451 1452 1453 1454 1455 1457 1458 1459 1461 1462 1463 1464 1465 1466 1467 1467 1468 1469 1470 1470 1471 1471 1472 1472 1473 1473 1473 1474 1474 1474 1475 1475
1443 1442 1441 1441 1441 1441 1441 1442 1442 1443 1444 1445 1445 1446 1448 1449 1450 1452 1453 1455 1457 1458 1459 1460 1461 1462 1463 1464 1465 1466 1467 1468 1468 1469 1469 1469 1470 1470 1470 1471 1471 1471 1471
1437 1436 1435 1435 1434 1434 1435 1435 1436 1436 1436 1437 1438 1440 1441 1442 1444 1445 1447 1449 1450 1451 1453 1454 1455 1457 1458 1460 1461 1462 1463 1464 1465 1465 1466 1466 1466 1467 1467 1467 1468 1468 1468
1431 1430 1429 1428 1428 1428 1428 1428 1428 1429 1430 1430 1432 1433 1434 1436 1437 1439 1440 1442 1443 1445 1447 1448 1450 1452 1453 1455 1457 1458 1459 1460 1461 1461 1462 1462 1463 1463 1464 1464 1464 1465 1465
1424 1423 1422 1421 1420 1420 1420 1420 1421 1421 1422 1423 1424 1425 1427 1428 1429 1431 1433 1435 1437 1439 1440 1442 1444 1446 1448 1450 1451 1453 1454 1455 1456 1457 1458 1459 1459 1460 1460 1460 1461 1461 1461
1418 1416 1415 1414 1413 1413 1412 1412 1413 1414 1414 1415 1417 1419 1420 1421 1423 1424 1426 1428 1430 1432 1434 1436 1438 1440 1442 1444 1445 1447 1449 1450 1451 1453 1454 1455 1455 1456 1457 1457 1457 1457 1458
1412 1410 1408 1407 1406 1405 1405 1405 1406 1406 1407 1408 1410 1412 1413 1415 1416 1418 1419 1421 1424 1426 1428 1430 1432 1434 1436 1438 1440 1441 1443 1444 1446 1447 1449 1450 1451 1452 1452 1453 1453 1454 1454
1405 1403 1401 1400 1399 1398 1398 1398 1398 1399 1400 1401 1403 1404 1406 1407 1409 1411 1413 1415 1417 1419 1421 1423 1425 1427 1429 1432 1433 1435 1437 1438 1440 1442 1443 1445 1446 1447 1448 1448 1449 1449 1450
1398 1396 1395 1393 1392 1391 1391 1391 1391 1392 1392 1394 1395 1396 1398 1400 1402 1404 1406 1408 1410 1412 1415 1417 1419 1421 1423 1425 1427 1429 1431 1433 1435 1437 1438 1439 1441 1442 1443 1444 1445 1445 1446
1392 1390 1388 1386 1385 1384 1384 1383 1384 1384 1385 1386 1387 1389 1391 1393 1395 1397 1399 1401 1404 1406 1409 1411 1413 1415 1417 1420 1422 1424 1426 1428 1430 1431 1433 1434 1436 1437 1438 1439 1440 1441 1441
1385 1383 1381 1380 1378 1377 1377 1376 1376 1377 1377 1378 1380 1381 1384 1386 1388 1391 1393 1395 1398 1400 1403 1405 1408 1410 1412 1414 1416 1418 1420 1422 1424 1426 1427 1429 1430 1432 1433 1434 1435 1436 1437